timestamp,wind_dir_avg,wind_spd_avg,wind_spd_max_dir,wind_spd_gust,battery_voltage,lat,long
2023-08-06 00:04:00+00:00,189.0,4.07,191.0,4.41,12.65,47.59359,-54.27349
2023-08-06 00:14:00+00:00,182.0,4.95,184.0,5.63,12.41,47.59359,-54.27349
2023-08-06 00:24:00+00:00,193.0,5.61,194.0,6.48,12.41,47.59359,-54.27349
2023-08-06 00:34:00+00:00,196.0,5.59,191.0,6.31,12.41,47.59359,-54.27349
2023-08-06 00:44:00+00:00,198.0,6.16,196.0,7.05,12.41,47.59359,-54.27349
2023-08-06 00:54:00+00:00,194.0,5.3,201.0,6.09,12.41,47.59359,-54.27349
2023-08-06 01:04:00+00:00,187.0,4.17,185.0,4.63,12.41,47.59359,-54.27349
2023-08-06 01:14:01+00:00,191.0,4.61,194.0,5.28,12.41,47.59359,-54.27349
2023-08-06 01:24:01+00:00,185.0,5.17,186.0,6.04,12.41,47.59359,-54.27349
2023-08-06 01:34:01+00:00,175.0,5.16,179.0,6.01,12.41,47.59359,-54.27349
2023-08-06 01:44:01+00:00,196.0,7.12,201.0,8.12,12.41,47.59359,-54.27349
2023-08-06 01:54:01+00:00,188.0,6.49,198.0,7.67,12.41,47.59359,-54.27349
2023-08-06 02:04:01+00:00,195.0,7.09,192.0,8.48,12.41,47.59359,-54.27349
2023-08-06 02:14:01+00:00,180.0,6.1,148.0,7.7,12.41,47.59359,-54.27349
2023-08-06 02:24:01+00:00,186.0,6.13,199.0,7.16,12.41,47.59359,-54.27349
2023-08-06 02:34:01+00:00,176.0,5.67,149.0,7.13,12.41,47.59359,-54.27349
2023-08-06 02:44:01+00:00,173.0,4.92,145.0,6.61,12.41,47.59359,-54.27349
2023-08-06 02:54:01+00:00,187.0,4.75,203.0,5.96,12.41,47.59359,-54.27349
2023-08-06 03:04:01+00:00,175.0,4.81,192.0,5.88,12.41,47.59359,-54.27349
2023-08-06 03:14:00+00:00,181.0,4.59,198.0,5.42,12.41,47.59359,-54.27349
2023-08-06 03:24:00+00:00,144.0,5.96,144.0,7.22,12.41,47.59359,-54.27349
2023-08-06 03:34:00+00:00,165.0,4.71,184.0,6.48,12.41,47.59359,-54.27349
2023-08-06 03:44:00+00:00,180.0,3.98,205.0,5.24,12.41,47.59359,-54.27349
2023-08-06 03:54:00+00:00,184.0,5.08,200.0,5.95,12.41,47.59359,-54.27349
2023-08-06 04:04:00+00:00,177.0,4.39,200.0,5.88,12.41,47.59359,-54.27349
2023-08-06 04:14:00+00:00,182.0,4.92,199.0,5.97,12.41,47.59359,-54.27349
2023-08-06 04:24:00+00:00,184.0,4.68,193.0,5.94,12.41,47.59359,-54.27349
2023-08-06 04:34:00+00:00,161.0,5.62,141.0,7.22,12.41,47.59359,-54.27349
2023-08-06 04:44:00+00:00,189.0,5.42,201.0,6.51,12.41,47.59359,-54.27349
2023-08-06 04:54:00+00:00,167.0,3.56,168.0,4.19,12.41,47.59359,-54.27349
2023-08-06 05:04:00+00:00,147.0,3.32,147.0,4.09,12.41,47.59359,-54.27349
2023-08-06 05:14:00+00:00,169.0,3.93,162.0,4.62,12.33,47.59359,-54.27349
2023-08-06 05:24:00+00:00,135.0,2.81,134.0,4.1,12.33,47.59359,-54.27349
2023-08-06 05:34:00+00:00,128.0,3.45,124.0,4.26,12.33,47.59359,-54.27349
2023-08-06 05:44:00+00:00,95.0,2.31,99.0,4.01,12.33,47.59359,-54.27349
2023-08-06 05:54:00+00:00,105.0,2.14,90.0,3.74,12.33,47.59359,-54.27349
2023-08-06 06:04:00+00:00,103.0,3.31,137.0,4.79,12.33,47.59359,-54.27349
2023-08-06 06:14:00+00:00,98.0,2.73,79.0,4.85,12.33,47.59359,-54.27349
2023-08-06 06:24:00+00:00,104.0,4.26,79.0,7.38,12.33,47.59359,-54.27349
2023-08-06 06:34:00+00:00,112.0,4.32,122.0,7.1,12.33,47.59359,-54.27349
2023-08-06 06:44:00+00:00,107.0,3.21,91.0,6.16,12.33,47.59359,-54.27349
2023-08-06 06:54:00+00:00,84.0,3.6,75.0,6.09,12.33,47.59359,-54.27349
2023-08-06 07:04:00+00:00,99.0,3.58,76.0,5.98,12.33,47.59359,-54.27349
2023-08-06 07:14:01+00:00,87.0,4.11,85.0,7.02,12.33,47.59359,-54.27349
2023-08-06 07:24:01+00:00,97.0,3.38,124.0,6.52,12.33,47.59359,-54.27349
2023-08-06 07:34:01+00:00,98.0,3.65,111.0,6.04,12.33,47.59359,-54.27349
2023-08-06 07:44:01+00:00,94.0,3.16,90.0,5.87,12.33,47.59359,-54.27349
2023-08-06 07:54:01+00:00,101.0,3.88,100.0,6.94,12.33,47.59359,-54.27349
2023-08-06 08:04:01+00:00,91.0,2.89,87.0,5.43,12.33,47.59359,-54.27349
2023-08-06 08:14:01+00:00,88.0,4.4,106.0,7.39,12.25,47.59359,-54.27349
2023-08-06 08:24:01+00:00,79.0,3.78,79.0,7.26,12.25,47.59359,-54.27349
2023-08-06 08:34:01+00:00,102.0,5.2,120.0,7.97,12.25,47.59359,-54.27349
2023-08-06 08:44:01+00:00,90.0,3.97,102.0,6.58,12.25,47.59359,-54.27349
2023-08-06 08:54:01+00:00,101.0,3.91,103.0,7.19,12.25,47.59359,-54.27349
2023-08-06 09:04:01+00:00,77.0,4.72,84.0,8.23,12.25,47.59359,-54.27349
2023-08-06 09:14:00+00:00,82.0,3.63,80.0,6.26,12.17,47.59359,-54.27349
2023-08-06 09:24:00+00:00,83.0,5.59,80.0,7.81,12.17,47.59359,-54.27349
2023-08-06 09:34:00+00:00,79.0,5.49,64.0,7.53,12.17,47.59359,-54.27349
2023-08-06 09:44:00+00:00,74.0,5.82,63.0,7.13,12.17,47.59359,-54.27349
2023-08-06 09:54:00+00:00,80.0,4.33,72.0,6.25,12.17,47.59359,-54.27349
2023-08-06 10:04:00+00:00,73.0,6.37,70.0,7.55,12.17,47.59359,-54.27349
2023-08-06 10:14:00+00:00,76.0,4.97,67.0,7.25,12.25,47.59359,-54.27349
2023-08-06 10:24:00+00:00,75.0,6.42,66.0,8.02,12.25,47.59359,-54.27349
2023-08-06 10:34:00+00:00,82.0,3.37,92.0,6.21,12.25,47.59359,-54.27349
2023-08-06 10:44:00+00:00,80.0,3.59,83.0,6.27,12.25,47.59359,-54.27349
2023-08-06 10:54:00+00:00,72.0,4.79,75.0,6.53,12.25,47.59359,-54.27349
2023-08-06 11:04:00+00:00,81.0,3.64,88.0,7.31,12.25,47.59359,-54.27349
2023-08-06 11:14:01+00:00,82.0,3.75,92.0,5.64,12.33,47.59359,-54.27349
2023-08-06 11:24:01+00:00,83.0,2.6,86.0,6.57,12.33,47.59359,-54.27349
2023-08-06 11:34:01+00:00,74.0,3.39,82.0,7.49,12.33,47.59359,-54.27349
2023-08-06 11:44:01+00:00,94.0,3.05,86.0,8.09,12.33,47.59359,-54.27349
2023-08-06 11:54:01+00:00,99.0,5.25,113.0,7.58,12.33,47.59359,-54.27349
2023-08-06 12:04:01+00:00,98.0,4.08,94.0,8.2,12.33,47.59359,-54.27349
2023-08-06 12:14:01+00:00,79.0,3.53,83.0,6.52,12.65,47.59359,-54.27349
2023-08-06 12:24:01+00:00,77.0,3.78,82.0,6.36,12.65,47.59359,-54.27349
2023-08-06 12:34:01+00:00,77.0,4.82,76.0,9.14,12.65,47.59359,-54.27349
2023-08-06 12:44:01+00:00,78.0,4.85,83.0,7.35,12.65,47.59359,-54.27349
2023-08-06 12:54:01+00:00,89.0,5.83,123.0,8.18,12.65,47.59359,-54.27349
2023-08-06 13:04:01+00:00,97.0,4.93,116.0,8.84,12.65,47.59359,-54.27349
2023-08-06 13:14:00+00:00,92.0,4.34,102.0,7.45,12.97,47.59359,-54.27349
2023-08-06 13:24:00+00:00,83.0,4.69,97.0,7.4,12.97,47.59359,-54.27349
2023-08-06 13:34:00+00:00,80.0,4.73,111.0,7.16,12.97,47.59359,-54.27349
2023-08-06 13:44:00+00:00,82.0,4.59,63.0,6.88,12.97,47.59359,-54.27349
2023-08-06 13:54:00+00:00,83.0,5.13,74.0,7.25,12.97,47.59359,-54.27349
2023-08-06 14:04:00+00:00,77.0,7.55,76.0,9.12,12.97,47.59359,-54.27349
2023-08-06 14:14:01+00:00,77.0,8.33,80.0,11.2,12.65,47.59359,-54.27349
2023-08-06 14:24:01+00:00,70.0,6.47,68.0,7.43,12.65,47.59359,-54.27349
2023-08-06 14:34:01+00:00,74.0,6.55,66.0,8.27,12.65,47.59359,-54.27349
2023-08-06 14:44:01+00:00,73.0,6.66,70.0,7.99,12.65,47.59359,-54.27349
2023-08-06 14:54:01+00:00,70.0,7.49,71.0,8.17,12.65,47.59359,-54.27349
2023-08-06 15:04:01+00:00,71.0,6.51,79.0,8.04,12.65,47.59359,-54.27349
2023-08-06 15:14:00+00:00,70.0,6.5,64.0,7.4,13.53,47.59359,-54.27349
2023-08-06 15:24:00+00:00,79.0,4.67,77.0,6.18,13.53,47.59359,-54.27349
2023-08-06 15:34:00+00:00,92.0,4.4,117.0,6.62,13.53,47.59359,-54.27349
2023-08-06 15:44:00+00:00,88.0,3.16,77.0,5.28,13.53,47.59359,-54.27349
2023-08-06 15:54:00+00:00,77.0,4.59,67.0,6.08,13.53,47.59359,-54.27349
2023-08-06 16:04:00+00:00,97.0,3.52,79.0,5.56,13.53,47.59359,-54.27349
2023-08-06 16:14:00+00:00,101.0,3.92,125.0,6.24,13.68,47.59359,-54.27349
2023-08-06 16:24:00+00:00,109.0,3.46,129.0,6.47,13.68,47.59359,-54.27349
2023-08-06 16:34:00+00:00,109.0,4.21,129.0,8.43,13.68,47.59359,-54.27349
2023-08-06 16:44:00+00:00,99.0,3.18,110.0,5.95,13.68,47.59359,-54.27349
2023-08-06 16:54:00+00:00,87.0,4.01,80.0,6.83,13.68,47.59359,-54.27349
2023-08-06 17:04:00+00:00,102.0,3.88,107.0,5.85,13.68,47.59359,-54.27349
2023-08-06 17:14:00+00:00,101.0,2.98,132.0,5.08,14.0,47.59359,-54.27349
2023-08-06 17:24:00+00:00,85.0,3.02,82.0,5.26,14.0,47.59359,-54.27349
2023-08-06 17:34:00+00:00,81.0,4.41,88.0,7.35,14.0,47.59359,-54.27349
2023-08-06 17:44:00+00:00,81.0,3.9,80.0,5.84,14.0,47.59359,-54.27349
2023-08-06 17:54:00+00:00,88.0,3.98,101.0,6.1,14.0,47.59359,-54.27349
2023-08-06 18:04:00+00:00,82.0,4.56,64.0,7.43,14.0,47.59359,-54.27349
2023-08-06 18:14:00+00:00,78.0,5.35,97.0,7.1,13.68,47.59359,-54.27349
2023-08-06 18:24:00+00:00,76.0,4.39,87.0,6.74,13.68,47.59359,-54.27349
2023-08-06 18:34:00+00:00,81.0,3.63,81.0,5.35,13.68,47.59359,-54.27349
2023-08-06 18:44:00+00:00,80.0,4.87,84.0,6.77,13.68,47.59359,-54.27349
2023-08-06 18:54:00+00:00,79.0,5.15,89.0,7.11,13.68,47.59359,-54.27349
2023-08-06 19:04:00+00:00,78.0,5.31,73.0,6.91,13.68,47.59359,-54.27349
2023-08-06 19:14:00+00:00,74.0,4.83,68.0,6.81,13.6,47.59359,-54.27349
2023-08-06 19:24:00+00:00,70.0,5.27,69.0,6.91,13.6,47.59359,-54.27349
2023-08-06 19:34:00+00:00,68.0,6.04,71.0,6.81,13.6,47.59359,-54.27349
2023-08-06 19:44:00+00:00,63.0,6.08,61.0,7.66,13.6,47.59359,-54.27349
2023-08-06 19:54:00+00:00,67.0,6.07,63.0,6.97,13.6,47.59359,-54.27349
2023-08-06 20:04:00+00:00,72.0,6.53,69.0,7.6,13.6,47.59359,-54.27349
2023-08-06 20:14:00+00:00,72.0,4.73,63.0,6.62,13.44,47.59359,-54.27349
2023-08-06 20:24:00+00:00,72.0,7.41,77.0,9.9,13.44,47.59359,-54.27349
2023-08-06 20:34:00+00:00,70.0,6.48,66.0,7.14,13.44,47.59359,-54.27349
2023-08-06 20:44:00+00:00,68.0,4.58,61.0,6.03,13.44,47.59359,-54.27349
2023-08-06 20:54:00+00:00,68.0,5.77,70.0,6.49,13.44,47.59359,-54.27349
2023-08-06 21:04:00+00:00,76.0,5.22,75.0,6.82,13.44,47.59359,-54.27349
2023-08-06 21:14:01+00:00,68.0,4.81,66.0,5.74,13.21,47.59359,-54.27349
2023-08-06 21:24:01+00:00,68.0,6.96,68.0,7.42,13.21,47.59359,-54.27349
2023-08-06 21:34:01+00:00,67.0,6.0,58.0,7.08,13.21,47.59359,-54.27349
2023-08-06 21:44:01+00:00,72.0,5.9,65.0,6.92,13.21,47.59359,-54.27349
2023-08-06 21:54:01+00:00,75.0,5.49,84.0,6.95,13.21,47.59359,-54.27349
2023-08-06 22:04:01+00:00,70.0,4.42,73.0,5.92,13.21,47.59359,-54.27349
2023-08-06 22:14:00+00:00,66.0,4.84,65.0,5.63,12.97,47.59359,-54.27349
2023-08-06 22:24:00+00:00,72.0,4.85,68.0,6.7,12.97,47.59359,-54.27349
2023-08-06 22:34:00+00:00,67.0,4.94,73.0,6.04,12.97,47.59359,-54.27349
2023-08-06 22:44:00+00:00,53.0,3.9,52.0,4.49,12.97,47.59359,-54.27349
2023-08-06 22:54:00+00:00,61.0,4.38,55.0,5.02,12.97,47.59359,-54.27349
2023-08-06 23:04:00+00:00,50.0,5.02,40.0,5.74,12.97,47.59359,-54.27349
2023-08-06 23:14:00+00:00,55.0,4.36,55.0,5.01,12.49,47.59359,-54.27349
2023-08-06 23:24:00+00:00,69.0,5.25,65.0,5.65,12.49,47.59359,-54.27349
2023-08-06 23:34:00+00:00,69.0,5.64,71.0,6.52,12.49,47.59359,-54.27349
2023-08-06 23:44:00+00:00,71.0,5.1,69.0,5.9,12.49,47.59359,-54.27349
2023-08-06 23:54:00+00:00,69.0,5.46,70.0,6.13,12.49,47.59359,-54.27349
